Terminal Aerodrome Forecast
Issued by NWS Dallas/Fort Worth, TX

Home | Current Version | Previous Version | Text Only | Print | Product List | Glossary On
Versions: 1 2 3 4 5 6 7 8 9 10 11 12 13 14 15 16 17 18 19 20 21 22 23 24 25 26 27 28
000
FTUS44 KFWD 280539
TAFACT
TAF
KACT 280539Z 2806/2906 17006KT 4SM BR OVC004
      TEMPO 2806/2810 1SM BR
     FM281500 18010KT P6SM SCT006 OVC010
     FM281800 18010KT P6SM SCT015 BKN035
     FM282100 16010KT P6SM BKN050=

USA.gov is the U.S. government's official web portal to all federal, state and local government web resources and services.